Tracking 31027 objects as of 19-Jul-2025
HD Live streaming from Space Station
objects crossing your sky now

ATLAS 5 CENTAUR DEB

Track ATLAS 5 CENTAUR DEB now!


NORAD ID: 43967
Int'l Code: 2014-055W
Perigee: 7,445.6 km
Apogee: 36,312.6 km
Inclination: 19.6 °
Period: 787.6 minutes
Semi major axis: 28250 km
RCS: Unknown
Launch date: September 17, 2014
Source: United States (US)
Launch site: AIR FORCE EASTERN TEST RANGE (AFETR)

Note: This is SATELLITE DEBRIS
Your satellite tracking list
CZ-3A R/B
Track 1 satellite(s)




NASA's NSSDC Master Catalog

Two Line Element Set (TLE):
1 43967U 14055W   25197.75451508 -.00000022  00000-0  00000-0 0  9998
2 43967  19.6158 167.6548 5109176 121.3573 298.5744  1.82840714 45866
Source of the keplerian elements: AFSPC